This is the latest recevied weather packets stored in our database for station/object KW4UJ. If no packets are shown the sender has not sent any weather packets the latest 10 day(s).
| Time | Temp. | Humidity | Pressure | Rain* | Wind** | Luminosity | Snow |
|---|---|---|---|---|---|---|---|
| 1777919261 | 25° C | 33% | 1011.5 hPa | 0 mm | - | 660 W/m² | - |
| 1777918958 | 24.44° C | 34% | 1011.4 hPa | 0 mm | - | 680 W/m² | - |
| 1777918656 | 23.89° C | 33% | 1011.6 hPa | 0 mm | - | 715 W/m² | - |
| 1777918353 | 24.44° C | 36% | 1011.6 hPa | 0 mm | - | 667 W/m² | - |
| 1777918052 | 24.44° C | 38% | 1011.6 hPa | 0 mm | - | 682 W/m² | - |
| 1777917750 | 23.33° C | 34% | 1011.6 hPa | 0 mm | - | 677 W/m² | - |
| 1777917447 | 23.33° C | 35% | 1011.9 hPa | 0 mm | - | 685 W/m² | - |
| 1777917144 | 23.33° C | 36% | 1012 hPa | 0 mm | - | 688 W/m² | - |
| 1777916842 | 23.89° C | 36% | 1012.1 hPa | 0 mm | - | 687 W/m² | - |
| 1777916540 | 23.33° C | 34% | 1012.2 hPa | 0 mm | - | 699 W/m² | - |
| 1777916236 | 23.33° C | 37% | 1012.2 hPa | 0 mm | - | 692 W/m² | - |
| 1777915933 | 23.89° C | 34% | 1012.3 hPa | 0 mm | - | 693 W/m² | - |
| 1777915630 | 23.89° C | 34% | 1012.1 hPa | 0 mm | - | 684 W/m² | - |
| 1777915326 | 23.33° C | 35% | 1012.2 hPa | 0 mm | - | 687 W/m² | - |
| 1777915023 | 23.33° C | 35% | 1012.5 hPa | 0 mm | - | 685 W/m² | - |
| 1777914720 | 22.78° C | 34% | 1012.5 hPa | 0 mm | - | 683 W/m² | - |
| 1777914416 | 22.78° C | 35% | 1012.5 hPa | 0 mm | - | 683 W/m² | - |
| 1777914114 | 22.78° C | 34% | 1012.7 hPa | 0 mm | - | 685 W/m² | - |
| 1777913810 | 22.78° C | 34% | 1013 hPa | 0 mm | - | 681 W/m² | - |
| 1777913506 | 23.33° C | 35% | 1012.6 hPa | 0 mm | - | 679 W/m² | - |
| 1777913203 | 22.78° C | 35% | 1012.6 hPa | 0 mm | - | 677 W/m² | - |
| 1777912899 | 22.22° C | 36% | 1012.9 hPa | 0 mm | - | 672 W/m² | - |
| 1777912596 | 22.22° C | 37% | 1013 hPa | 0 mm | - | 669 W/m² | - |
| 1777912292 | 22.22° C | 36% | 1013 hPa | 0 mm | - | 665 W/m² | - |
| 1777911988 | 22.22° C | 36% | 1012.9 hPa | 0 mm | - | 661 W/m² | - |
* Rain latest hour (hover to see other rain measurements)
** Current wind speed in m/s (hover to see current wind gust speed)